sat.trackr.live / text

‹ back to catalog

SHIYAN-6 01 (SY-6 01)

NORAD 43711 · 2018-094B

PAYLOAD ACTIVE UNKNOWN

§ Identity

Operator
Country
PRC
Launch date
2018-11-19
Launch site
JSC
Launch vehicle
Mass (kg)
RCS (m²)

External: N2YO · Heavens-Above · Gunter

§ Orbital elements

Epoch: 2026-09-20T04:29:40.075296Z

Period
94.09 min
Inclination
97.3605°
Eccentricity
0.0013053
Mean motion
15.30413990 rev/d
Perigee alt
465.6 km
Apogee alt
483.5 km
Semi-major
6,852.7 km
B*
1.1107e-4
RAAN
276.4557°
Arg perigee
163.4175°
Mean anomaly
196.7495°
Rev number
43,601

§ Raw data

SHIYAN-6 01 (SY-6 01)1 43711U 18094B   26263.18726939  .00003197  00000+0  11107-3 0  99942 43711  97.3605 276.4557 0013053 163.4175 196.7495 15.30413990436013

JSON: /api/v1/satellites/43711 · /tle

For live sub-satellite position, see the globe view (requires WebGL).

§ Visibility from observer

Set your observer location to see the next 7 days of passes ≥ 10°. The values pass through the URL so the page stays shareable.

No JS? Fill the form by hand. The geolocation button needs JavaScript.